User: anonymous   Login
Location: Ward Pound Ridge Reservation
(41.2500°N, 73.6000°W)
Time: 17:12:57
(UTC-05:00)
Language:

Tiangong 2 - Orbit

View from above orbital plane
View from above orbital plane
View from above satellite
View from above satellite

Ground track
Ground track

The orbit data is extracted from the following two-line orbital elements,

1 41765U 16057A   18050.48178241  .00004946  00000-0  63086-4 0  9991
2 41765  42.7852 324.4930 0003019 182.2207 155.3949 15.60407981 81582
Epoch (UTC): 19 February 2018 11:33:46
Eccentricity: 0.0003019
inclination: 42.7852°
perigee height: 384 km
apogee height: 388 km
right ascension of ascending node: 324.4930°
argument of perigee: 182.2207°
revolutions per day: 15.60407981
mean anomaly at epoch: 155.3949°
orbit number at epoch: 8158

The dashed part of the orbit path shows where the satellite is in the earth's shadow,  

DLR